Dewpoint
23 21 19 19 23 25 26 25 24 24 22 20 23 27 33 37 40 41 41 42 43 45 47 48 49 50 50 51 50 49 50 51 50 49 49 47 45 41 38 38 36 34 34 33
24 21 19 19 18 19 17 20 19 21 23 25 23 23 24 31 35 39 41 41 42 44 45 46 47 48 49 49 49 49 49 49 48 47 45 43 40 39 38 36 34 34 32 32
27 23 23 26 22 18 18 17 18 19 23 23 25 24 26 30 32 35 40 41 41 43 45 46 47 47 48 48 48 48 48 47 45 44 41 40 38 35 34 35 34 33 32 32
33 30 27 26 22 21 22 21 22 23 23 24 26 24 27 32 36 36 39 41 41 42 44 45 45 45 47 46 46 46 45 44 43 40 38 36 35 34 34 34 33 32 31 31
34 31 28 25 23 22 22 24 34 36 38 39 38 35 30 30 32 35 39 42 42 43 44 44 44 44 44 44 44 44 43 41 39 37 35 33 32 33 33 32 32 31 30 30
32 25 23 27 23 23 27 24 38 38 39 40 39 38 38 38 34 30 39 42 42 42 43 44 43 44 43 42 43 41 40 38 37 35 32 31 32 32 32 32 29 27 27 28
32 30 25 24 23 28 27 33 39 38 39 39 39 40 42 40 38 36 40 41 41 42 42 42 43 43 41 41 40 39 37 35 34 32 31 31 31 31 30 29 28 27 25 27
29 29 27 27 24 32 39 41 40 40 40 40 40 42 42 40 38 37 39 40 40 41 41 42 41 41 39 39 38 36 34 32 31 29 25 27 30 29 28 28 27 27 25 25
29 29 40 42 40 40 40 39 39 40 39 39 39 39 39 39 40 39 40 39 40 40 40 41 40 40 38 37 35 34 32 29 27 26 26 27 27 27 25 27 26 25 23 23
25 25 34 40 37 37 36 38 37 38 38 35 38 39 39 39 39 39 41 40 39 39 39 39 39 39 38 36 33 30 29 27 26 24 25 25 23 24 25 26 26 26 24 24
23 24 25 31 34 27 32 33 33 33 34 34 32 35 39 39 39 39 41 39 38 38 39 38 38 38 36 33 31 29 27 26 24 24 25 24 24 25 24 25 28 26 26 28
25 26 27 25 26 26 27 29 30 32 31 32 29 27 33 41 40 40 39 39 38 38 38 37 37 37 34 31 29 28 26 25 24 23 25 23 21 22 27 27 27 27 28 25
23 21 21 22 22 20 22 25 25 27 25 25 27 26 30 40 42 41 40 40 38 38 38 37 36 36 31 30 29 27 25 25 24 22 23 21 21 22 21 25 26 25 25 27
20 22 23 19 20 22 23 20 23 20 20 20 22 26 30 38 41 43 44 41 40 38 38 37 36 36 32 30 28 27 26 27 23 23 22 22 19 21 22 21 20 20 22 22
18 17 19 20 20 18 17 18 18 20 20 20 23 27 31 41 40 39 42 44 43 41 39 38 37 36 32 31 28 28 25 22 23 24 23 21 19 21 23 22 21 21 20 22
19 21 22 22 20 20 22 22 22 22 23 27 28 29 33 42 41 39 40 41 41 40 40 38 37 34 33 30 29 29 26 25 24 21 19 17 18 19 21 22 22 22 20 19
33 32 33 33 33 33 33 33 33 32 31 32 33 32 32 39 40 39 39 41 41 42 41 40 37 32 32 30 29 28 23 23 24 18 15 15 16 18 19 21 20 19 20 20
34 34 35 34 34 36 36 36 36 36 36 36 37 38 35 40 41 41 41 41 39 38 41 38 35 32 30 29 28 26 21 20 19 19 16 18 20 21 18 17 18 18 18 15
32 33 33 33 35 37 38 37 37 37 39 39 39 39 38 40 42 41 41 38 36 37 39 35 30 30 28 29 27 25 20 18 18 17 18 22 21 18 16 16 16 17 18 15
27 27 28 28 30 35 35 38 38 38 38 38 37 39 39 36 36 37 39 38 38 38 37 34 30 29 28 28 27 23 20 19 17 18 20 18 18 17 16 17 14 15 16 16
28 27 28 30 30 33 34 33 34 36 37 37 36 35 35 36 36 34 36 36 37 36 35 30 30 29 27 26 23 22 20 20 19 21 20 21 20 16 15 15 15 18 19 16
27 30 33 34 34 35 37 36 35 36 36 34 34 34 33 34 36 35 36 36 37 32 31 30 29 28 26 24 21 21 20 20 21 22 22 22 20 20 20 19 20 21 20 20
28 29 30 35 34 35 36 35 35 35 34 34 34 34 34 34 36 36 35 36 36 33 32 30 29 28 26 25 24 24 23 24 24 23 24 23 23 23 19 20 21 20 20 19
27 32 34 35 35 34 34 35 37 37 35 35 35 35 35 35 35 35 35 34 33 32 33 32 29 26 25 28 27 27 27 27 26 26 25 24 25 23 22 22 21 20 20 17
34 34 34 34 33 33 35 35 37 37 37 36 36 37 36 36 34 33 33 32 31 32 31 28 27 26 30 30 29 29 28 27 28 27 26 25 25 24 22 21 20 20 18 17
31 34 35 34 35 35 35 36 36 37 36 36 36 36 34 33 32 32 32 32 32 32 32 29 29 29 30 30 29 29 28 28 27 26 26 25 24 23 21 20 19 18 17 17
34 34 37 35 36 36 37 36 38 38 36 36 34 34 32 31 31 29 30 30 30 30 29 29 29 30 30 29 28 28 28 27 27 26 26 25 24 22 20 20 19 19 18 17
Lifted_Index
2 2 2 1 0 0 1 1 1 2 2 1 1 0 -0 -0 -1 0 1 1 2 2 2 1 1 1 1 1 1 1 1 2 2 3 4 5 6 7 8 9 11 13 15 17
2 2 2 1 1 1 1 1 1 1 1 1 1 0 0 -0 -1 -0 1 1 2 2 2 2 2 2 1 1 1 1 2 2 3 4 5 6 7 7 8 10 11 14 17 18
1 1 1 2 1 1 1 1 1 1 1 0 0 0 0 -1 -1 -0 0 1 1 2 2 3 3 3 3 3 3 3 3 4 4 5 6 7 7 8 9 10 13 16 18 20
0 0 1 1 1 1 0 0 0 0 -0 -0 -0 -0 -0 -1 -1 -0 0 1 1 2 3 3 4 4 4 4 4 4 5 5 6 7 7 7 8 9 10 12 14 17 19 21
0 0 1 1 1 0 -0 -0 -0 -0 -0 -1 -1 -1 -1 -1 -1 -0 0 0 1 2 3 4 4 5 5 5 6 6 6 7 7 7 7 8 8 9 11 14 16 19 20 21
0 0 1 1 1 -0 -0 -0 -0 -0 0 -0 -1 -2 -1 -1 -1 -0 -0 0 1 2 3 4 5 5 6 6 6 6 7 7 8 8 8 8 9 10 13 16 18 20 21 21
0 0 1 1 1 -0 -1 -0 -0 0 0 0 -1 -1 -2 -1 -1 -1 -1 -0 1 2 3 4 5 6 6 6 7 7 8 8 8 9 9 9 10 12 15 17 19 20 21 21
0 0 0 0 -0 -1 -1 -0 0 0 1 0 -0 -1 -1 -1 -1 -1 -1 -1 0 2 3 4 5 6 6 7 7 8 8 8 8 9 10 10 11 13 16 18 19 20 21 21
0 0 -0 -0 -1 -0 -0 0 0 1 1 0 0 -0 -1 -1 -1 -1 -1 -1 1 2 3 4 6 6 7 7 8 8 8 8 8 9 10 11 12 14 16 18 19 19 20 21
1 1 0 -1 -0 0 1 1 1 1 1 1 1 0 -0 -1 -1 -1 -1 -0 1 2 3 4 6 7 8 8 8 8 7 7 8 8 10 12 14 16 17 18 19 19 20 20
2 2 1 1 1 2 2 2 3 3 3 3 3 2 1 0 -0 -0 -0 -0 1 2 3 5 6 7 8 9 9 8 7 7 7 9 11 13 15 17 18 19 20 20 20 21
3 3 3 3 3 4 4 4 5 5 4 5 5 4 3 1 1 1 0 0 1 2 3 5 6 7 8 9 9 8 7 6 7 9 11 13 15 16 18 19 20 20 21 21
5 5 5 5 6 6 6 6 6 6 6 6 6 6 4 3 2 1 1 1 2 3 4 5 6 7 8 9 9 8 7 7 8 9 11 13 14 15 17 19 20 21 21 22
6 6 7 7 7 7 7 7 7 7 7 7 7 6 5 3 2 2 2 2 2 3 4 5 6 7 8 9 9 8 8 8 9 10 12 13 15 15 16 18 19 20 22 23
7 7 7 7 7 7 7 7 7 7 7 7 7 6 5 3 3 3 3 2 2 3 3 4 6 7 8 9 9 9 9 9 10 11 13 15 16 17 18 18 19 20 21 22
6 6 6 6 6 6 6 6 6 6 6 6 6 5 4 3 3 3 3 3 3 3 3 4 5 7 8 9 10 10 10 10 11 12 13 15 16 18 19 19 20 20 21 21
4 4 4 5 5 5 5 4 4 4 4 4 4 4 3 3 3 3 3 4 4 4 3 4 5 7 8 9 10 11 11 11 12 12 13 15 16 18 19 20 21 21 21 22
4 4 4 5 5 5 5 5 4 4 4 4 3 3 3 3 2 3 3 4 4 5 5 5 6 7 8 9 11 11 11 11 12 12 13 15 17 18 19 20 21 22 22 22
4 4 4 5 5 5 5 5 5 5 4 4 4 3 3 3 2 2 3 3 4 5 6 6 7 7 8 10 11 12 12 12 12 13 14 16 17 18 19 20 21 22 22 22
4 4 4 4 4 5 5 5 4 4 4 4 4 3 3 3 3 2 3 3 4 5 6 7 8 8 9 10 12 13 12 12 12 13 14 16 17 17 18 20 21 22 22 23
3 4 4 4 4 5 5 5 4 3 3 3 3 3 3 3 3 3 3 3 3 5 6 8 9 10 10 12 13 13 13 13 13 13 14 15 16 16 18 20 21 22 22 23
3 3 4 4 5 5 5 5 5 4 3 3 2 2 2 2 3 3 3 3 3 5 6 8 10 11 12 13 13 13 13 13 14 14 14 14 15 17 18 20 21 22 23 23
3 3 4 4 5 5 5 6 5 5 4 3 3 2 2 2 2 3 3 3 4 5 6 8 11 12 13 14 14 14 14 15 15 14 14 14 16 18 19 21 22 22 23 23
3 3 4 4 4 5 5 5 5 5 5 4 3 3 2 2 2 3 4 4 5 6 7 9 12 13 14 15 15 15 16 16 16 15 15 16 18 19 21 21 22 22 23 23
2 3 3 4 4 4 4 5 5 5 5 5 5 4 4 3 4 4 5 5 6 7 9 11 13 14 15 16 16 16 17 17 16 16 17 17 18 20 21 22 22 22 23 23
2 2 3 3 3 4 4 4 5 5 6 6 6 5 5 5 5 6 6 7 8 9 11 12 14 15 16 16 16 17 17 17 17 17 18 18 20 21 22 22 22 22 23 23
2 2 3 3 3 3 4 4 5 5 6 7 6 6 5 6 6 7 7 8 9 10 11 13 14 15 16 16 16 17 17 17 18 18 18 19 21 22 22 22 22 22 23 23